User: anonymous
Location: Unspecified
(0.0000°N, 0.0000°E)
Time: 15:29:14
(UTC+00:00)
Language:

Aussat K3 - Orbit

View from above orbital plane
View from above orbital plane
View from above satellite
View from above satellite

Ground track
Ground track

The orbit data is extracted from the following two-line orbital elements,

1 18350U 87078A   14199.56919449  .00000009  00000-0  00000+0 0  1347
2 18350 013.7278 029.5308 0001907 250.5266 108.9998 00.98904410 97484
Epoch (UTC): 18 July 2014 13:39:38
Eccentricity: 0.0001907
inclination: 13.7278°
perigee height: 36166 km
apogee height: 36182 km
right ascension of ascending node: 29.5308°
argument of perigee: 250.5266°
revolutions per day: 0.98904410
mean anomaly at epoch: 108.9998°
orbit number at epoch: 9748

The dashed part of the orbit path shows where the satellite is in the earth's shadow,  

DLR